Home   Weather   Ilioupoli   Past weeks

Flag for Greece Past Weather in Ilioupoli, Greece — Yesterday and Last 2 Weeks

Now
86 °F

Passing clouds.


Feels Like: 84 °F
Forecast: 79 / 91 °F
Wind: 18 mph from North

Location: Eleftherios Venizelos International Airport

Current Time: Aug 17, 2017 at 11:04:29 am

Latest Report: Aug 17, 2017 at 10:20 am


Visibility: N/A

Pressure: 29.86 "Hg

Humidity: 33%

Dew Point: 54 °F

Location of IlioupoliLocation

Past Weather in Ilioupoli — Graph

°F

Ilioupoli Temperature Yesterday

Maximum temperature yesterday: 90 °F (at 2:20 pm)
Minimum temperature yesterday: 75 °F (at 1:50 am)
Average temperature yesterday: 83 °F

High & Low Weather Summary for the Past Weeks

 TemperatureHumidityPressure
High99 °F (Aug 5, 3:50 pm)65% (Aug 14, 11:50 pm)30.01 "Hg (Aug 14, 11:50 pm)
Low72 °F (Aug 14, 1:50 am)17% (Aug 12, 3:50 pm)29.68 "Hg (Aug 13, 2:20 am)
Average86 °F37%29.87 "Hg
* Reported Aug 2 9:20 am — Aug 17 9:50 am, Ilioupoli. Weather by CustomWeather, © 2017

Note: Actual official high and low records may vary slightly from our data, if they occured in-between our weather recording intervals... More about our weather records

Advertising

Ilioupoli Weather History for the Previous 24 Hours

Scroll right to see more
 ConditionsComfort  
Time TempWeatherWind HumidityBarometerVisibility
9:50 am
Thu, Aug 17
84 °FPassing clouds.21 mph35%29.86 "HgN/A
9:20 am84 °FPassing clouds.22 mph37%29.83 "HgN/A
8:50 am82 °FSunny.17 mph42%29.86 "Hg10 mi
8:20 am81 °FSunny.14 mph45%29.86 "Hg10 mi
7:50 am81 °FSunny.12 mph48%29.86 "Hg10 mi
7:20 am79 °FSunny.12 mph51%29.86 "Hg10 mi
6:50 am77 °FPassing clouds.12 mph61%29.86 "HgN/A
6:20 am77 °FPassing clouds.14 mph61%29.86 "HgN/A
5:50 am75 °FClear.10 mph61%29.86 "Hg10 mi
5:20 am77 °FClear.10 mph57%29.83 "Hg10 mi
4:50 am77 °FClear.15 mph57%29.83 "Hg10 mi
4:20 am79 °FClear.13 mph48%29.86 "Hg10 mi
3:50 am79 °FClear.9 mph48%29.86 "Hg10 mi
2:50 am79 °FClear.10 mph48%29.86 "Hg10 mi
2:20 am81 °FClear.10 mph48%29.86 "Hg10 mi
1:50 am81 °FClear.12 mph45%29.86 "Hg10 mi
1:20 am77 °FClear.8 mph54%29.86 "Hg10 mi
12:50 am79 °FClear.8 mph54%29.86 "Hg10 mi
12:20 am79 °FClear.8 mph54%29.89 "Hg10 mi
11:50 pm
Wed, Aug 16
79 °FClear.8 mph48%29.89 "Hg10 mi
11:20 pm81 °FClear.9 mph42%29.89 "Hg10 mi
10:50 pm82 °FClear.14 mph40%29.86 "Hg10 mi
10:20 pm84 °FClear.7 mph35%29.89 "Hg10 mi
9:50 pm84 °FClear.9 mph33%29.86 "Hg10 mi
9:20 pm84 °FClear.8 mph33%29.86 "Hg10 mi
8:50 pm86 °FClear.10 mph31%29.86 "Hg10 mi
8:20 pm86 °FPassing clouds.12 mph29%29.86 "HgN/A
7:50 pm88 °FPassing clouds.9 mph29%29.86 "HgN/A
7:20 pm88 °FPassing clouds.13 mph27%29.86 "HgN/A
6:50 pm88 °FPassing clouds.17 mph29%29.86 "HgN/A
6:20 pm90 °FPassing clouds.17 mph27%29.86 "HgN/A
5:50 pm90 °FPassing clouds.20 mph27%29.86 "HgN/A
5:20 pm90 °FPassing clouds.22 mph26%29.86 "HgN/A
4:20 pm90 °FScattered clouds.25 mph27%29.86 "HgN/A
3:50 pm90 °FScattered clouds.23 mph27%29.86 "HgN/A
3:20 pm90 °FScattered clouds.23 mph29%29.89 "HgN/A
2:50 pm90 °FScattered clouds.25 mph31%29.89 "HgN/A
2:20 pm90 °FScattered clouds.22 mph31%29.89 "HgN/A
1:50 pm88 °FScattered clouds.21 mph33%29.89 "HgN/A
1:20 pm88 °FScattered clouds.22 mph35%29.89 "HgN/A
12:50 pm88 °FScattered clouds.23 mph35%29.89 "HgN/A
12:20 pm86 °FScattered clouds.23 mph35%29.89 "HgN/A
11:50 am86 °FScattered clouds.23 mph35%29.92 "HgN/A
11:20 am84 °FScattered clouds.21 mph43%29.92 "HgN/A
Weather by CustomWeather, © 2017

See weather overviewHow to use our weather pages